{"data":{"norad_id":60155,"epoch":"2026-09-21T21:21:53.330976Z","epoch_age_seconds":61402,"freshness":"FRESH","line1":"1 60155U 24120W   26264.89020059 -.00000259  00000+0  34564-5 0  9992","line2":"2 60155  53.1591 125.1675 0001195  94.6658 265.4481 15.34391603126468","mean_motion":15.34391603,"eccentricity":0.0001195,"inclination_deg":53.1591,"raan_deg":125.1675,"arg_perigee_deg":94.6658,"mean_anomaly_deg":265.4481,"bstar":3.4564e-6,"rev_number":12646,"period_min":93.848271665757,"perigee_km":461.91071458335,"apogee_km":463.54568136567,"semimajor_km":6840.8651979745,"source":"CELESTRAK","updated_at":"2026-09-22T09:00:49.180845Z"}}